UNQ275 LGTS-LHBP

Flight info

Callsign UNQ275
Flight time N/A
Altitude 38000
Route ODIKO UN128 RUGAS DCT SIN DCT RAXAD DCT VAGEN DCT PARAK DCT KEZAL
Aircraft A320/M-SDE3FGHIRWY/LB1

Departure

Time N/A
Airport Thessaloniki Macedonia International Airport (LGTS)

Arrival

Time 2026-05-05 11:36
Airport Budapest Liszt Ferenc International Airport (LHBP)
Time Latitude Longitude Altitude Speed Heading
2026-05-05 10:23 41.13909 22.95616 22398 ft 377 kts 332°
2026-05-05 10:23 41.16135 22.93753 22936 ft 379 kts 328°
2026-05-05 10:24 41.18348 22.91833 23493 ft 381 kts 328°
2026-05-05 10:24 41.20572 22.89900 23974 ft 383 kts 328°
2026-05-05 10:24 41.22810 22.87955 24416 ft 385 kts 328°
2026-05-05 10:24 41.25056 22.86005 24843 ft 387 kts 328°
2026-05-05 10:25 41.27319 22.84043 25257 ft 389 kts 328°
2026-05-05 10:25 41.29589 22.82071 25656 ft 391 kts 328°
2026-05-05 10:25 41.31873 22.80083 26060 ft 393 kts 328°
2026-05-05 10:25 41.34223 22.78309 26438 ft 395 kts 334°
2026-05-05 10:26 41.36701 22.76709 26813 ft 397 kts 334°
2026-05-05 10:26 41.39196 22.75095 27197 ft 400 kts 334°
2026-05-05 10:26 41.41709 22.73468 27582 ft 402 kts 334°
2026-05-05 10:26 41.44230 22.71836 27978 ft 404 kts 334°
2026-05-05 10:27 41.46761 22.70197 28353 ft 406 kts 334°
2026-05-05 10:27 41.49309 22.68545 28721 ft 408 kts 334°
2026-05-05 10:27 41.51865 22.66884 29082 ft 410 kts 334°
2026-05-05 10:27 41.54433 22.65214 29440 ft 412 kts 334°
2026-05-05 10:28 41.57018 22.63528 29766 ft 414 kts 334°
2026-05-05 10:28 41.59609 22.61833 30160 ft 415 kts 334°
2026-05-05 10:28 41.62193 22.60140 30583 ft 413 kts 334°
2026-05-05 10:28 41.64768 22.58454 31021 ft 412 kts 334°
2026-05-05 10:29 41.67340 22.56771 31454 ft 410 kts 334°
2026-05-05 10:29 41.69903 22.55097 31878 ft 409 kts 333°
2026-05-05 10:29 41.72459 22.53423 32308 ft 408 kts 333°
2026-05-05 10:29 41.75000 22.51756 32736 ft 407 kts 333°
2026-05-05 10:30 41.77544 22.50087 33191 ft 406 kts 333°
2026-05-05 10:30 41.80080 22.48422 33638 ft 405 kts 333°
2026-05-05 10:30 41.82605 22.46764 34086 ft 404 kts 333°
2026-05-05 10:30 41.85124 22.45108 34460 ft 403 kts 333°
2026-05-05 10:31 41.87638 22.43453 34813 ft 403 kts 333°
2026-05-05 10:31 41.90152 22.41797 35155 ft 402 kts 333°
2026-05-05 10:31 41.92661 22.40143 35488 ft 402 kts 333°
2026-05-05 10:31 41.95166 22.38489 35804 ft 401 kts 333°
2026-05-05 10:32 41.97654 22.36891 36096 ft 402 kts 336°
2026-05-05 10:32 42.00344 22.35698 36415 ft 403 kts 342°
2026-05-05 10:32 42.03012 22.34706 36717 ft 403 kts 342°
2026-05-05 10:32 42.05710 22.33704 37022 ft 402 kts 342°
2026-05-05 10:33 42.08405 22.32703 37312 ft 402 kts 342°
2026-05-05 10:33 42.11098 22.31702 37620 ft 401 kts 342°
2026-05-05 10:33 42.13793 22.30694 37893 ft 402 kts 342°
2026-05-05 10:33 42.16485 22.29683 38075 ft 402 kts 342°
2026-05-05 10:34 42.21891 22.27646 38110 ft 405 kts 342°
2026-05-05 10:34 42.27323 22.25594 38105 ft 406 kts 342°
2026-05-05 10:35 42.32757 22.23528 38105 ft 406 kts 342°
2026-05-05 10:35 42.38183 22.21407 38089 ft 406 kts 341°
2026-05-05 10:36 42.40886 22.20282 39453 ft 405 kts 341°
2026-05-05 10:36 42.43582 22.19157 39459 ft 407 kts 341°
2026-05-05 10:36 42.46275 22.18004 39331 ft 406 kts 341°
2026-05-05 10:36 42.48995 22.16933 38845 ft 407 kts 342°
2026-05-05 10:37 42.51714 22.15911 38276 ft 406 kts 342°
2026-05-05 10:37 42.54425 22.14900 38052 ft 401 kts 342°
2026-05-05 10:37 42.59809 22.12837 38072 ft 405 kts 341°
2026-05-05 10:38 42.65195 22.10696 38090 ft 406 kts 341°
2026-05-05 10:38 42.70608 22.08519 38090 ft 406 kts 341°
2026-05-05 10:39 42.75903 22.05921 38082 ft 405 kts 336°
2026-05-05 10:39 42.81135 22.03081 38085 ft 405 kts 336°
2026-05-05 10:40 42.86370 22.00236 38087 ft 406 kts 336°
2026-05-05 10:40 42.91611 21.97380 38082 ft 406 kts 336°
2026-05-05 10:41 42.96860 21.94519 38080 ft 406 kts 336°
2026-05-05 10:41 43.02112 21.91649 38067 ft 406 kts 336°
2026-05-05 10:42 43.09987 21.87334 38073 ft 407 kts 336°
2026-05-05 10:43 43.15237 21.84446 38075 ft 407 kts 336°
2026-05-05 10:43 43.20494 21.81554 38082 ft 407 kts 336°
2026-05-05 10:44 43.25750 21.78665 38085 ft 407 kts 336°
2026-05-05 10:44 43.31012 21.75753 38088 ft 408 kts 336°
2026-05-05 10:45 43.36276 21.72835 38086 ft 408 kts 336°
2026-05-05 10:45 43.41551 21.69916 38083 ft 409 kts 336°
2026-05-05 10:46 43.46800 21.67008 38082 ft 409 kts 336°
2026-05-05 10:46 43.52081 21.64070 38083 ft 410 kts 336°
2026-05-05 10:47 43.57372 21.61122 38075 ft 410 kts 336°
2026-05-05 10:47 43.62663 21.58166 38065 ft 410 kts 336°
2026-05-05 10:48 43.67965 21.55199 38066 ft 411 kts 336°
2026-05-05 10:48 43.72532 21.52634 38074 ft 411 kts 336°
2026-05-05 10:49 43.76035 21.50663 38072 ft 412 kts 336°
2026-05-05 10:49 43.81353 21.47676 38072 ft 413 kts 336°
2026-05-05 10:50 43.86635 21.44700 38071 ft 413 kts 336°
2026-05-05 10:50 43.91960 21.41702 38063 ft 413 kts 336°
2026-05-05 10:51 43.97282 21.38694 38066 ft 413 kts 336°
2026-05-05 10:51 44.02613 21.35679 38065 ft 414 kts 336°
2026-05-05 10:52 44.07940 21.32649 38062 ft 414 kts 336°
2026-05-05 10:52 44.13267 21.29612 38063 ft 414 kts 336°
2026-05-05 10:53 44.18601 21.26576 38056 ft 414 kts 336°
2026-05-05 10:53 44.23039 21.24040 38053 ft 415 kts 336°
2026-05-05 10:54 44.28378 21.20986 38053 ft 415 kts 336°
2026-05-05 10:54 44.34595 21.17419 38051 ft 415 kts 336°
2026-05-05 10:55 44.39073 21.14845 38058 ft 416 kts 336°
2026-05-05 10:55 44.44431 21.11763 38051 ft 417 kts 336°
2026-05-05 10:56 44.49794 21.08675 38050 ft 417 kts 336°
2026-05-05 10:56 44.55134 21.05587 38049 ft 418 kts 335°
2026-05-05 10:57 44.60505 21.02472 38061 ft 418 kts 336°
2026-05-05 10:57 44.65886 20.99351 38055 ft 419 kts 336°
2026-05-05 10:58 44.71275 20.96221 38051 ft 419 kts 336°
2026-05-05 10:58 44.76673 20.93089 38052 ft 420 kts 336°
2026-05-05 10:59 44.82067 20.89943 38046 ft 420 kts 335°
2026-05-05 10:59 44.87472 20.86780 38047 ft 420 kts 335°
2026-05-05 11:00 44.92870 20.83617 38045 ft 420 kts 335°
2026-05-05 11:00 44.98264 20.80442 38051 ft 420 kts 335°
2026-05-05 11:01 45.03666 20.77268 38044 ft 420 kts 335°
2026-05-05 11:01 45.09068 20.74088 38044 ft 421 kts 335°
2026-05-05 11:02 45.14436 20.70909 38038 ft 421 kts 335°
2026-05-05 11:02 45.19847 20.67704 38039 ft 421 kts 335°
2026-05-05 11:03 45.25256 20.64505 38037 ft 421 kts 335°
2026-05-05 11:03 45.30672 20.61292 38038 ft 422 kts 335°
2026-05-05 11:04 45.36094 20.58061 38031 ft 423 kts 335°
2026-05-05 11:04 45.41517 20.54812 38031 ft 423 kts 335°
2026-05-05 11:05 45.46953 20.51552 38026 ft 424 kts 335°
2026-05-05 11:05 45.52398 20.48294 38035 ft 424 kts 335°
2026-05-05 11:06 45.57844 20.45036 38037 ft 425 kts 335°
2026-05-05 11:06 45.63310 20.41757 38031 ft 425 kts 335°
2026-05-05 11:07 45.68756 20.38459 38033 ft 425 kts 335°
2026-05-05 11:07 45.74207 20.35156 38021 ft 426 kts 335°
2026-05-05 11:08 45.79675 20.31847 38023 ft 427 kts 335°
2026-05-05 11:08 45.85148 20.28519 38024 ft 427 kts 335°
2026-05-05 11:09 45.90623 20.25189 38028 ft 427 kts 335°
2026-05-05 11:09 45.96100 20.21854 38023 ft 428 kts 335°
2026-05-05 11:10 46.01579 20.18506 38025 ft 428 kts 335°
2026-05-05 11:10 46.07024 20.15166 38021 ft 429 kts 335°
2026-05-05 11:11 46.12515 20.11795 38013 ft 429 kts 337°
2026-05-05 11:11 46.18352 20.09953 38019 ft 434 kts 356°
2026-05-05 11:12 46.24394 20.10520 38021 ft 436 kts
2026-05-05 11:12 46.30442 20.11355 38026 ft 437 kts
2026-05-05 11:13 46.36506 20.12174 38028 ft 437 kts
2026-05-05 11:13 46.42570 20.12986 38034 ft 438 kts
2026-05-05 11:14 46.48629 20.13810 38031 ft 438 kts
2026-05-05 11:14 46.54703 20.14660 38028 ft 438 kts
2026-05-05 11:15 46.60730 20.15496 38029 ft 438 kts
2026-05-05 11:15 46.66794 20.16337 37413 ft 440 kts
2026-05-05 11:15 46.69876 20.16764 36361 ft 447 kts
2026-05-05 11:16 46.72964 20.17190 35718 ft 446 kts
2026-05-05 11:16 46.76061 20.17624 34916 ft 448 kts
2026-05-05 11:16 46.79178 20.18060 34068 ft 452 kts
2026-05-05 11:16 46.82324 20.18498 33094 ft 456 kts
2026-05-05 11:17 46.85487 20.18941 32197 ft 457 kts
2026-05-05 11:17 46.88649 20.19384 31479 ft 455 kts
2026-05-05 11:17 46.91791 20.19825 30764 ft 453 kts
2026-05-05 11:17 46.94913 20.20265 30202 ft 448 kts
2026-05-05 11:18 46.98004 20.20700 29550 ft 444 kts
2026-05-05 11:18 47.01056 20.21128 28891 ft 439 kts
2026-05-05 11:18 47.04085 20.21553 28244 ft 435 kts
2026-05-05 11:18 47.07087 20.21974 27603 ft 432 kts
2026-05-05 11:19 47.10064 20.22110 26991 ft 426 kts 354°
2026-05-05 11:19 47.12966 20.21450 26394 ft 420 kts 343°
2026-05-05 11:19 47.15703 20.20039 25799 ft 415 kts 334°
2026-05-05 11:19 47.18197 20.17946 25181 ft 412 kts 322°
2026-05-05 11:20 47.20372 20.15252 24604 ft 408 kts 313°
2026-05-05 11:20 47.22306 20.12213 24060 ft 405 kts 311°
2026-05-05 11:20 47.24221 20.09188 23551 ft 403 kts 311°
2026-05-05 11:20 47.26132 20.06177 22948 ft 401 kts 311°
2026-05-05 11:21 47.28033 20.03185 22375 ft 399 kts 311°
2026-05-05 11:21 47.29922 20.00211 21855 ft 397 kts 311°
2026-05-05 11:21 47.31805 19.97243 21343 ft 395 kts 311°
2026-05-05 11:21 47.33669 19.94292 20842 ft 392 kts 310°
2026-05-05 11:22 47.35512 19.91339 20326 ft 390 kts 308°
2026-05-05 11:22 47.37021 19.88066 19817 ft 384 kts 295°
2026-05-05 11:22 47.37978 19.84425 19303 ft 378 kts 281°
2026-05-05 11:22 47.38374 19.80630 18812 ft 373 kts 270°
2026-05-05 11:23 47.38218 19.76841 18282 ft 368 kts 257°
2026-05-05 11:23 47.37584 19.73212 17739 ft 364 kts 252°
2026-05-05 11:23 47.36884 19.69638 17188 ft 361 kts 252°
2026-05-05 11:23 47.36223 19.66079 16638 ft 359 kts 256°
2026-05-05 11:24 47.36041 19.62420 16121 ft 360 kts 271°
2026-05-05 11:24 47.36499 19.58791 15589 ft 362 kts 285°
2026-05-05 11:24 47.37580 19.55439 15068 ft 364 kts 300°
2026-05-05 11:24 47.39189 19.52545 14540 ft 365 kts 310°
2026-05-05 11:25 47.40886 19.49834 14017 ft 364 kts 310°
2026-05-05 11:25 47.42599 19.47096 13510 ft 362 kts 309°
2026-05-05 11:25 47.44296 19.44376 12978 ft 359 kts 309°
2026-05-05 11:25 47.45978 19.41666 12451 ft 356 kts 308°
2026-05-05 11:26 47.47642 19.38977 11919 ft 353 kts 308°
2026-05-05 11:26 47.49292 19.36303 11402 ft 351 kts 308°
2026-05-05 11:26 47.50923 19.33670 11177 ft 340 kts 308°
2026-05-05 11:26 47.52498 19.31136 11049 ft 328 kts 308°
2026-05-05 11:27 47.54018 19.28692 10926 ft 317 kts 308°
2026-05-05 11:27 47.55485 19.26325 10793 ft 307 kts 308°
2026-05-05 11:27 47.56915 19.24007 10539 ft 303 kts 308°
2026-05-05 11:27 47.58327 19.21707 10219 ft 301 kts 307°
2026-05-05 11:28 47.59731 19.19420 9912 ft 300 kts 307°
2026-05-05 11:28 47.61131 19.17139 9576 ft 298 kts 307°
2026-05-05 11:28 47.62521 19.14877 9268 ft 296 kts 307°
2026-05-05 11:28 47.63903 19.12624 8959 ft 294 kts 307°
2026-05-05 11:29 47.65222 19.10383 8818 ft 282 kts 298°
2026-05-05 11:29 47.65919 19.07825 8697 ft 259 kts 271°
2026-05-05 11:29 47.65794 19.05274 8487 ft 243 kts 246°
2026-05-05 11:29 47.64994 19.03173 8351 ft 228 kts 225°
2026-05-05 11:30 47.63863 19.01608 8220 ft 218 kts 220°
2026-05-05 11:30 47.62754 19.00122 8091 ft 210 kts 221°
2026-05-05 11:30 47.61643 18.98813 7909 ft 201 kts 205°
2026-05-05 11:30 47.60293 18.98416 7672 ft 202 kts 177°
2026-05-05 11:31 47.58994 18.99164 7395 ft 211 kts 146°
2026-05-05 11:31 47.57952 19.00794 7094 ft 219 kts 134°
2026-05-05 11:31 47.57088 19.02634 6755 ft 221 kts 132°
2026-05-05 11:31 47.56158 19.04427 6364 ft 208 kts 138°
2026-05-05 11:32 47.55225 19.05894 5853 ft 186 kts 139°
2026-05-05 11:32 47.54387 19.07299 5203 ft 179 kts 140°
2026-05-05 11:32 47.53490 19.08562 4459 ft 177 kts 147°
2026-05-05 11:32 47.52547 19.09723 3698 ft 177 kts 144°
2026-05-05 11:33 47.51677 19.11031 2931 ft 180 kts 137°
2026-05-05 11:33 47.50850 19.12372 2390 ft 172 kts 139°
2026-05-05 11:33 47.50084 19.13638 2058 ft 155 kts 137°
2026-05-05 11:33 47.49423 19.14807 1863 ft 144 kts 135°
2026-05-05 11:34 47.48783 19.15896 1556 ft 137 kts 140°
2026-05-05 11:34 47.48107 19.16834 1304 ft 131 kts 143°
2026-05-05 11:34 47.47502 19.17865 1210 ft 135 kts 132°
2026-05-05 11:34 47.46887 19.18915 995 ft 133 kts 141°
2026-05-05 11:35 47.46242 19.19881 882 ft 135 kts 137°
2026-05-05 11:35 47.45625 19.20895 673 ft 134 kts 137°
2026-05-05 11:35 47.44991 19.21895 539 ft 134 kts 137°
2026-05-05 11:35 47.44388 19.22845 455 ft 112 kts 132°
2026-05-05 11:36 47.43976 19.23523 455 ft 64 kts 131°
2026-05-05 11:36 47.43739 19.23942 453 ft 50 kts 118°
2026-05-05 11:36 47.43641 19.24412 457 ft 46 kts 111°
2026-05-05 11:36 47.43476 19.24737 456 ft 32 kts 134°
2026-05-05 11:37 47.43329 19.24967 457 ft 27 kts 133°
2026-05-05 11:37 47.43245 19.25110 457 ft 18 kts 128°
2026-05-05 11:37 47.43263 19.25282 457 ft 19 kts 44°
2026-05-05 11:37 47.43355 19.25401 457 ft 17 kts 42°
2026-05-05 11:38 47.43446 19.25525 456 ft 19 kts 42°
2026-05-05 11:38 47.43524 19.25629 457 ft 13 kts 41°
2026-05-05 11:38 47.43524 19.25754 455 ft 15 kts 133°
2026-05-05 11:38 47.43454 19.25880 457 ft 17 kts 133°
2026-05-05 11:39 47.43446 19.26010 457 ft 13 kts 43°
2026-05-05 11:39 47.43460 19.26043 456 ft 3 kts 82°
2026-05-05 11:39 47.43443 19.26084 457 ft 6 kts 134°
2026-05-05 11:39 47.43414 19.26129 457 ft 0 kts 134°
2026-05-05 11:40 47.43412 19.26134 457 ft 0 kts 130°